sat.trackr.live / text

‹ back to catalog

STARLINK-34615

NORAD 66321 · 2025-253C

PAYLOAD ACTIVE UNKNOWN

§ Identity

Operator
Country
US
Launch date
2025-11-06
Launch site
AFETR
Launch vehicle
Mass (kg)
RCS (m²)

Purposes: comms

External: N2YO · Heavens-Above · Gunter

§ Orbital elements

Epoch: 2026-09-19T22:38:50.465760Z

Period
94.27 min
Inclination
43.0021°
Eccentricity
0.0001081
Mean motion
15.27586489 rev/d
Perigee alt
482.3 km
Apogee alt
483.8 km
Semi-major
6,861.2 km
B*
5.5031e-4
RAAN
195.3972°
Arg perigee
263.1003°
Mean anomaly
96.9726°
Rev number
4,995

§ Raw data

STARLINK-346151 66321U 25253C   26262.94363965  .00014915  00000+0  55031-3 0  99942 66321  43.0021 195.3972 0001081 263.1003  96.9726 15.27586489 49952

JSON: /api/v1/satellites/66321 · /tle

For live sub-satellite position, see the globe view (requires WebGL).

§ Visibility from observer

Set your observer location to see the next 7 days of passes ≥ 10°. The values pass through the URL so the page stays shareable.

No JS? Fill the form by hand. The geolocation button needs JavaScript.